Wind_Speed
35 36 27 23 26 28 31 34 36 36 36 38 40 43 47 50 52 52 49 50 50 47 45 41 39 35 33 30 28 26 23 20 7 7 13 14 10 8 7 8 9 9 11
36 36 34 34 25 25 30 33 35 37 38 39 41 42 46 48 51 54 50 49 51 50 49 45 43 38 36 34 32 30 29 25 16 10 12 11 10 8 7 7 9 11 13
36 36 38 37 34 29 28 31 33 35 39 40 41 43 44 47 48 51 52 51 51 49 50 50 47 45 41 40 37 36 32 30 26 16 11 12 10 8 8 8 10 12 13
30 27 26 33 37 37 33 31 32 32 34 38 42 45 47 45 47 47 48 47 51 51 51 52 51 52 49 46 42 39 36 31 24 17 12 10 12 10 8 7 7 8 12
26 24 27 27 31 36 36 31 28 30 34 35 37 41 44 45 48 47 47 46 46 43 46 49 51 53 52 48 46 43 39 32 23 19 14 10 11 11 11 7 10 10 14
24 24 26 28 30 30 35 36 32 31 31 36 37 38 40 42 41 46 48 43 40 41 42 45 45 51 51 48 46 43 42 42 32 23 20 18 18 16 13 13 11 7 5
24 26 26 28 32 33 34 35 34 30 31 33 35 37 38 40 38 42 45 44 43 43 41 40 39 45 48 43 35 35 36 38 37 38 28 22 18 20 15 13 11 9 9
25 25 27 31 34 32 35 35 34 29 25 29 30 34 32 36 34 38 41 42 43 43 44 46 45 43 49 46 40 35 36 36 33 33 29 21 19 17 15 10 9 10 13
23 25 28 29 31 28 30 32 36 33 31 27 26 28 31 35 33 35 40 42 37 39 42 42 44 44 50 41 41 34 29 32 28 26 22 18 16 14 11 14 12 5 2
24 27 30 31 29 31 31 31 32 32 33 30 27 28 31 32 30 30 41 37 33 33 36 37 42 43 42 43 42 38 32 31 32 29 23 19 19 19 18 13 10 7 5
28 31 31 30 30 32 33 33 32 31 30 28 30 28 27 30 32 31 39 40 34 31 29 31 36 39 42 44 37 38 34 30 30 29 23 25 24 19 16 13 11 10 8
31 31 30 31 33 32 31 34 31 29 28 27 26 26 23 27 30 33 36 44 34 32 31 29 30 40 38 43 39 33 28 27 32 28 26 22 18 16 14 12 9 7 8
28 34 35 35 33 30 28 33 30 27 24 24 21 20 23 24 31 30 32 38 39 33 29 29 30 38 39 40 36 29 30 29 32 28 25 18 15 14 12 10 7 6 6
31 35 35 34 36 34 31 29 28 27 24 23 21 21 22 22 24 26 29 31 37 32 26 26 28 36 35 34 38 32 35 35 33 28 22 16 13 13 11 9 5 3 5
32 36 35 33 33 33 30 29 29 31 29 28 27 25 22 20 26 25 28 30 32 31 30 28 28 31 29 27 27 29 35 35 30 25 19 16 13 11 9 7 4 2 3
35 34 31 30 30 30 30 33 33 35 37 39 38 35 27 33 25 25 31 32 30 37 33 30 28 33 30 32 29 27 31 32 27 24 21 21 17 13 9 6 2 4 5
34 34 32 30 29 27 27 26 22 31 30 33 34 35 36 31 25 25 30 32 34 41 28 30 31 30 29 30 28 27 22 26 27 24 23 19 16 12 10 5 3 5 7
34 34 33 31 30 28 27 27 26 23 18 21 25 29 31 32 27 23 27 29 30 41 29 28 29 30 28 29 29 28 25 26 25 22 20 20 17 13 9 6 4 5 8
33 31 32 31 31 31 30 29 29 27 25 26 21 21 24 26 27 24 27 29 24 31 25 23 28 31 29 29 28 27 31 28 26 24 22 20 17 12 8 5 4 7 9
31 32 33 30 29 28 28 26 24 24 23 24 17 17 17 19 21 23 25 25 20 24 25 25 25 26 27 28 29 30 29 30 27 23 20 17 14 10 7 4 5 6 9
29 29 30 30 28 28 27 25 24 22 21 15 16 18 20 19 18 19 19 20 18 25 26 27 28 27 28 32 33 32 30 28 25 20 17 14 11 9 7 5 6 9 12
27 26 26 25 26 25 24 25 23 21 15 14 14 17 19 16 13 15 14 20 24 27 33 33 29 28 31 34 33 31 29 26 23 20 16 13 9 8 5 5 8 11 13
23 23 23 22 20 18 15 12 10 9 10 11 11 6 3 16 22 22 23 27 28 30 29 26 25 26 28 27 27 26 25 23 20 17 14 11 8 7 5 8 11 14 14
21 20 19 18 16 14 13 12 11 10 11 12 13 14 16 16 23 22 24 25 27 27 26 27 29 28 26 24 21 19 17 16 14 13 11 9 8 7 8 11 13 16 17
20 20 19 18 17 16 15 15 16 16 16 15 16 17 18 21 24 26 28 31 33 34 31 28 25 22 20 18 16 15 14 13 12 10 9 9 8 8 11 14 17 18 18
20 20 20 20 20 19 17 16 16 16 16 17 17 18 20 22 24 28 31 32 32 30 27 23 20 18 15 14 12 11 12 12 11 9 8 9 10 11 14 17 19 21 21
Wind_Direction
6 7 358 329 298 282 268 261 255 251 243 237 233 229 223 219 218 218 214 215 214 214 215 214 213 208 208 208 208 207 207 205 178 180 196 214 228 236 278 317 332 340 347
0 1 0 358 340 303 284 273 262 254 250 243 238 233 226 223 220 216 213 215 212 210 212 212 213 208 208 207 207 207 205 205 200 188 211 218 223 250 293 315 326 335 337
357 358 358 358 351 338 311 297 279 266 256 249 241 236 228 225 221 219 216 214 215 214 211 210 209 207 205 206 206 206 206 202 203 194 204 230 252 276 291 306 315 326 329
352 349 349 351 351 351 341 318 299 286 267 254 247 241 234 228 226 222 216 214 214 215 214 214 211 209 206 204 205 208 204 199 195 197 203 218 243 243 250 274 290 285 296
341 344 339 340 344 346 346 336 316 293 276 261 252 244 237 230 226 220 218 216 213 210 212 214 213 215 214 213 206 204 203 196 186 184 201 199 207 210 205 213 246 272 280
336 332 337 335 339 338 337 338 333 313 290 272 254 244 237 231 225 219 217 214 216 209 207 212 213 215 214 213 212 213 211 198 188 183 197 206 210 207 200 207 224 236 259
332 336 336 337 334 333 333 329 328 319 295 269 256 245 239 238 230 221 212 213 212 210 210 207 205 211 212 206 201 207 208 211 220 209 194 200 195 204 201 204 213 232 249
329 333 331 331 329 324 327 325 317 310 289 269 258 251 244 244 236 226 216 212 212 210 210 208 206 202 206 201 194 195 201 204 207 211 214 211 207 197 206 205 215 249 277
320 322 323 324 321 318 314 312 313 308 298 281 269 260 248 249 240 225 220 213 216 213 207 206 205 203 204 192 190 189 195 202 203 206 211 218 216 210 211 215 235 252 280
311 315 317 314 311 307 309 302 300 299 292 287 273 259 253 248 243 231 218 219 219 211 205 202 203 204 193 188 191 187 189 194 190 194 205 208 217 215 216 231 226 212 187
301 308 308 304 302 303 303 301 295 295 293 284 272 265 257 251 243 234 225 216 210 209 206 202 199 198 194 192 191 191 194 190 190 195 194 205 218 218 225 220 214 209 189
298 300 298 299 300 299 296 295 293 286 283 281 277 275 261 252 245 235 227 223 211 205 205 207 202 194 199 192 190 195 189 187 184 187 195 205 215 221 216 215 206 212 224
296 298 299 299 295 292 288 290 291 282 271 271 266 262 261 246 238 234 235 229 213 203 203 202 195 194 192 192 187 183 183 188 185 181 187 200 209 209 208 209 218 239 266
295 295 296 295 295 294 290 284 283 278 270 265 258 250 248 236 231 228 228 232 218 198 191 192 191 192 187 186 184 182 186 191 187 186 191 196 194 202 211 212 212 259 295
291 292 293 289 287 288 282 279 278 276 267 264 262 256 248 242 234 225 218 220 203 187 169 170 178 182 182 183 180 163 175 180 180 191 185 179 193 202 214 217 215 270 258
291 291 289 288 286 284 284 286 278 275 275 263 259 258 251 251 253 225 224 217 202 178 170 171 179 181 174 171 164 162 174 182 184 184 182 190 189 193 202 220 268 288 282
286 287 286 284 282 280 279 278 284 288 280 268 260 261 251 250 240 235 226 215 205 182 183 180 180 180 173 171 169 167 171 176 181 183 184 187 186 182 188 197 246 276 297
286 284 282 281 278 275 275 272 273 277 282 271 258 261 262 245 233 222 226 217 198 191 190 184 177 171 164 163 167 170 164 170 175 181 178 184 182 183 183 196 235 292 299
287 284 280 278 275 273 271 272 272 268 269 273 264 263 266 244 236 210 217 224 204 188 182 180 167 165 170 171 171 165 167 171 179 186 183 180 181 182 192 209 263 293 295
287 282 279 278 277 274 271 267 265 264 264 262 252 253 249 240 231 195 205 218 219 185 167 165 163 166 166 165 162 166 165 173 182 187 182 180 177 180 191 224 268 289 301
290 287 283 279 273 269 266 263 262 262 260 247 247 247 245 234 208 187 198 202 176 152 156 149 162 162 161 168 174 172 176 174 178 182 183 178 178 189 205 238 283 304 304
294 289 289 284 283 275 267 261 258 258 247 245 250 247 252 238 183 172 142 129 131 139 157 168 167 172 176 175 170 169 174 176 176 183 185 187 192 207 220 276 294 293 295
311 308 307 304 298 296 295 294 263 250 242 248 251 245 143 108 117 123 129 138 145 151 159 167 164 160 161 161 168 173 176 179 182 185 189 195 208 221 243 275 287 294 296
330 329 331 336 345 355 4 13 27 54 87 84 81 85 96 101 115 121 131 132 134 135 140 144 147 148 151 156 159 164 168 175 182 189 198 209 226 238 257 276 292 295 283
355 353 355 357 3 9 18 28 37 46 55 63 72 79 91 101 108 117 123 128 128 127 129 134 139 144 149 153 160 171 180 189 196 201 213 230 240 257 271 281 287 288 287
9 14 14 12 13 17 24 29 37 45 52 59 70 80 90 95 103 111 118 122 121 122 126 133 139 142 146 155 169 180 193 199 204 212 228 240 256 275 286 282 284 292 291
Height
735 731 728 727 727 727 723 722 724 722 723 724 727 730 734 735 739 744 748 752 756 762 768 773 777 781 787 792 796 800 803 805 808 816 817 818 817 819 821 823 822 819 815
738 735 730 726 723 721 720 718 719 717 717 717 720 721 724 728 730 732 738 743 745 748 754 762 768 774 778 783 789 793 795 799 803 808 813 814 810 811 811 813 816 814 811
739 734 730 726 722 717 715 714 714 713 711 711 711 713 716 717 722 725 728 732 738 741 742 748 754 761 767 773 778 783 790 792 794 797 802 806 804 802 804 804 805 804 803
739 736 734 730 725 717 711 710 708 706 706 706 705 703 708 706 711 717 719 723 724 730 732 738 744 746 752 758 768 777 780 785 786 792 798 800 803 801 800 801 802 804 799
740 733 733 728 722 716 713 708 701 701 702 701 698 698 699 695 697 704 710 716 716 718 723 730 733 737 742 748 755 764 770 777 780 783 794 795 797 802 795 798 799 802 797
736 735 728 726 719 714 711 703 696 694 694 694 690 690 691 688 689 691 694 704 713 709 712 721 726 730 732 738 746 752 757 763 770 773 782 786 788 792 791 790 795 797 796
738 730 725 721 716 710 706 703 694 692 692 688 686 683 678 681 684 687 684 689 697 699 704 710 718 721 727 732 741 745 749 755 761 763 767 773 776 782 786 784 786 788 789
731 726 725 718 713 709 701 699 697 692 689 685 678 677 666 670 677 678 681 683 685 685 689 696 703 708 714 722 731 737 741 748 752 757 763 768 771 775 776 775 776 778 777
729 726 722 715 711 707 701 697 692 689 681 672 668 665 661 663 669 666 678 676 677 673 674 682 691 696 703 712 719 727 737 743 747 752 759 765 771 771 770 767 768 771 772
723 720 714 711 708 703 697 693 690 683 678 668 660 657 656 655 660 659 666 669 667 666 667 669 677 685 694 701 705 715 726 733 741 748 754 757 765 764 765 761 759 763 765
717 714 710 706 703 696 690 686 680 674 665 659 657 648 643 646 649 654 657 651 651 663 663 663 666 676 684 691 698 708 715 725 736 743 747 751 757 756 756 756 753 754 756
711 707 704 700 694 688 684 677 672 666 659 651 647 639 633 636 639 646 642 643 643 648 653 659 662 667 682 685 692 700 713 721 728 730 739 747 751 749 751 753 749 749 750
702 697 692 687 683 679 675 667 663 657 650 642 638 630 629 633 637 633 634 634 635 640 644 650 657 665 674 684 685 694 707 713 720 723 730 740 742 745 747 747 744 744 744
693 688 682 676 670 666 662 657 651 643 639 635 630 627 625 624 623 625 624 627 630 635 641 649 656 666 669 676 683 688 693 702 710 718 724 730 735 741 743 740 736 736 736
685 679 673 668 662 655 650 646 641 634 631 626 620 618 616 611 611 615 614 617 621 626 635 642 649 656 665 672 677 679 687 695 700 711 716 720 731 735 737 735 731 731 731
676 670 666 660 655 649 641 631 628 624 619 614 611 610 605 607 607 606 609 609 614 618 625 630 637 643 650 659 666 675 683 687 695 701 706 716 722 726 729 730 727 728 728
670 663 657 652 646 641 635 628 617 608 608 601 599 598 599 596 597 600 602 601 607 614 617 621 627 635 643 651 660 668 679 685 689 697 702 711 716 718 721 721 722 723 720
660 654 648 642 637 631 626 620 614 607 597 591 591 589 586 586 586 590 598 598 598 606 612 617 621 628 636 643 653 661 671 682 688 696 697 705 708 710 713 715 715 715 713
648 642 636 631 625 620 615 610 605 600 592 586 581 579 576 576 578 583 590 591 589 593 603 616 617 622 632 640 650 656 663 675 686 694 694 695 700 704 707 708 709 709 708
636 630 625 619 613 608 603 598 593 588 582 576 572 572 572 572 572 574 580 584 588 590 600 609 618 622 628 638 645 654 662 669 683 693 693 693 694 697 700 704 704 704 702
627 620 614 609 602 597 592 587 583 578 573 569 568 568 568 566 567 571 575 579 583 588 598 605 615 623 628 636 644 652 663 670 678 688 691 690 690 692 697 698 697 695 695
619 612 605 599 591 584 579 574 571 568 565 564 564 563 563 562 565 570 574 579 582 589 597 605 615 625 628 636 645 653 661 669 674 682 685 686 686 690 689 691 691 692 691
614 607 600 592 584 578 572 567 565 563 563 562 562 562 563 563 567 572 577 581 587 592 599 610 618 627 635 641 648 654 660 666 672 677 680 682 684 684 684 686 688 687 684
612 606 599 592 585 579 574 570 567 564 564 564 564 565 567 569 571 577 582 585 591 597 605 615 624 632 638 644 648 655 661 666 671 674 677 679 679 680 681 681 681 680 679
614 608 602 596 590 585 581 577 574 572 571 572 573 574 576 578 581 585 589 593 598 604 613 622 630 635 640 644 649 656 661 664 668 671 673 676 676 676 675 674 674 674 672
617 612 608 603 598 593 589 586 584 583 581 581 581 583 584 586 590 593 597 602 607 613 620 627 633 637 641 645 651 654 658 662 666 668 671 672 671 670 669 669 668 667 666